| time (UTC) | temp F | wind direction | speed MPH | gust MPH | rain 1hr in | rain 24hr in | rain mn in | humidity % | barometer mb |
| 20260504100321 | 71 | 225 | 5.0 | 12.0 | 0.00 | 0.00 | 0.00 | 29 | 1014.7 |
| 20260504081304 | 64 | 104 | 0.0 | 4.0 | 0.00 | 0.00 | 0.00 | 51 | 1015.1 |
| 20260504080804 | 64 | 244 | 0.0 | 3.0 | 0.00 | 0.00 | 0.00 | 51 | 1015.1 |
| 20260504080521 | 64 | 244 | 0.0 | 3.0 | 0.00 | 0.00 | 0.00 | 51 | 1015.1 |
| 20260504070301 | 65 | 101 | 1.0 | 4.0 | 0.00 | 0.00 | 0.00 | 50 | 1015.6 |
| 20260504050301 | 68 | 339 | 0.0 | 1.0 | 0.00 | 0.00 | 0.00 | 44 | 1016.0 |
| 20260504045801 | 68 | 340 | 1.0 | 4.0 | 0.00 | 0.00 | 0.00 | 44 | 1016.1 |
| 20260504045301 | 69 | 340 | 2.0 | 5.0 | 0.00 | 0.00 | 0.00 | 43 | 1016.0 |
| 20260504044801 | 69 | 347 | 3.0 | 6.0 | 0.00 | 0.00 | 0.00 | 43 | 1016.0 |
| 20260504044301 | 69 | 329 | 3.0 | 6.0 | 0.00 | 0.00 | 0.00 | 43 | 1015.9 |
| 20260504043800 | 69 | 306 | 3.0 | 5.0 | 0.00 | 0.00 | 0.00 | 43 | 1016.1 |
| 20260504043302 | 69 | 341 | 3.0 | 5.0 | 0.00 | 0.00 | 0.00 | 43 | 1016.0 |
| 20260504042801 | 69 | 331 | 2.0 | 5.0 | 0.00 | 0.00 | 0.00 | 44 | 1016.0 |
| 20260504042304 | 69 | 317 | 2.0 | 4.0 | 0.00 | 0.00 | 0.00 | 43 | 1016.0 |
| 20260504041800 | 69 | 311 | 2.0 | 4.0 | 0.00 | 0.00 | 0.00 | 43 | 1016.0 |
| 20260504041301 | 69 | 338 | 1.0 | 3.0 | 0.00 | 0.00 | 0.00 | 43 | 1015.9 |
| 20260504040801 | 69 | 0 | 1.0 | 3.0 | 0.00 | 0.00 | 0.00 | 42 | 1015.8 |
| 20260504040301 | 69 | 306 | 1.0 | 3.0 | 0.00 | 0.00 | 0.00 | 42 | 1015.8 |
| 20260504035801 | 70 | 306 | 1.0 | 3.0 | 0.00 | 0.00 | 0.00 | 42 | 1015.6 |
| 20260504035304 | 70 | 341 | 2.0 | 3.0 | 0.00 | 0.00 | 0.00 | 41 | 1015.8 |
| 20260504034801 | 70 | 5 | 2.0 | 4.0 | 0.00 | 0.00 | 0.00 | 41 | 1015.8 |
| 20260504034301 | 70 | 30 | 2.0 | 5.0 | 0.00 | 0.00 | 0.00 | 41 | 1015.8 |
| 20260504034023 | 71 | 5 | 2.0 | 5.0 | 0.00 | 0.00 | 0.00 | 40 | 1015.6 |
| 20260504033254 | 71 | 14 | 3.0 | 5.0 | 0.00 | 0.00 | 0.00 | 40 | 1015.8 |
| 20260504032748 | 71 | 14 | 3.0 | 5.0 | 0.00 | 0.00 | 0.00 | 40 | 1015.8 |
| 20260504032735 | 71 | 21 | 3.0 | 5.0 | 0.00 | 0.00 | 0.00 | 39 | 1015.8 |
| 20260504031742 | 72 | 37 | 2.0 | 5.0 | 0.00 | 0.00 | 0.00 | 38 | 1015.8 |
| 20260504031241 | 72 | 42 | 3.0 | 4.0 | 0.00 | 0.00 | 0.00 | 38 | 1015.9 |
| 20260504030739 | 73 | 25 | 3.0 | 6.0 | 0.00 | 0.00 | 0.00 | 37 | 1016.0 |
| 20260504030502 | 73 | 21 | 3.0 | 6.0 | 0.00 | 0.00 | 0.00 | 36 | 1015.9 |
| 20260504030006 | 73 | 16 | 3.0 | 7.0 | 0.00 | 0.00 | 0.00 | 35 | 1016.0 |
| 20260504025233 | 74 | 5 | 2.0 | 7.0 | 0.00 | 0.00 | 0.00 | 35 | 1015.9 |
| 20260504024733 | 74 | 5 | 2.0 | 6.0 | 0.00 | 0.00 | 0.00 | 33 | 1015.9 |
| 20260504024233 | 75 | 5 | 2.0 | 4.0 | 0.00 | 0.00 | 0.00 | 31 | 1015.9 |
| 20260504023957 | 75 | 302 | 2.0 | 3.0 | 0.00 | 0.00 | 0.00 | 28 | 1015.8 |
| 20260504023457 | 76 | 288 | 1.0 | 3.0 | 0.00 | 0.00 | 0.00 | 27 | 1015.8 |
| 20260504022731 | 76 | 295 | 2.0 | 3.0 | 0.00 | 0.00 | 0.00 | 27 | 1015.6 |
| 20260504022231 | 76 | 290 | 2.0 | 3.0 | 0.00 | 0.00 | 0.00 | 27 | 1015.6 |
| 20260504021730 | 77 | 290 | 1.0 | 4.0 | 0.00 | 0.00 | 0.00 | 26 | 1015.3 |
| 20260504021228 | 77 | 290 | 2.0 | 5.0 | 0.00 | 0.00 | 0.00 | 26 | 1015.3 |
| 20260504020729 | 77 | 229 | 3.0 | 8.0 | 0.00 | 0.00 | 0.00 | 26 | 1015.4 |
| 20260504020228 | 77 | 248 | 4.0 | 9.0 | 0.00 | 0.00 | 0.00 | 25 | 1015.3 |
| 20260504015729 | 77 | 262 | 4.0 | 9.0 | 0.00 | 0.00 | 0.00 | 25 | 1015.3 |
| 20260504015229 | 77 | 232 | 4.0 | 9.0 | 0.00 | 0.00 | 0.00 | 25 | 1015.3 |
| 20260504014954 | 77 | 243 | 2.0 | 5.0 | 0.00 | 0.00 | 0.00 | 25 | 1015.1 |
| 20260504014229 | 77 | 219 | 3.0 | 6.0 | 0.00 | 0.00 | 0.00 | 26 | 1015.1 |
| 20260504013730 | 78 | 207 | 3.0 | 7.0 | 0.00 | 0.00 | 0.00 | 25 | 1015.2 |
| 20260504013229 | 78 | 245 | 3.0 | 7.0 | 0.00 | 0.00 | 0.00 | 28 | 1015.1 |
| 20260504012729 | 78 | 236 | 4.0 | 7.0 | 0.00 | 0.00 | 0.00 | 28 | 1015.1 |
| 20260504012449 | 78 | 225 | 4.0 | 7.0 | 0.00 | 0.00 | 0.00 | 29 | 1015.2 |
| 20260504011729 | 78 | 181 | 4.0 | 7.0 | 0.00 | 0.00 | 0.00 | 30 | 1015.2 |
| 20260504011227 | 78 | 217 | 5.0 | 8.0 | 0.00 | 0.00 | 0.00 | 30 | 1015.1 |
| 20260504010727 | 78 | 203 | 5.0 | 9.0 | 0.00 | 0.00 | 0.00 | 30 | 1015.1 |
| 20260504010713 | 78 | 182 | 5.0 | 9.0 | 0.00 | 0.00 | 0.00 | 30 | 1015.2 |
| 20260504005725 | 78 | 126 | 5.0 | 8.0 | 0.00 | 0.00 | 0.00 | 30 | 1015.2 |
| 20260504005225 | 79 | 165 | 6.0 | 10.0 | 0.00 | 0.00 | 0.00 | 29 | 1015.1 |
| 20260504004725 | 79 | 144 | 5.0 | 10.0 | 0.00 | 0.00 | 0.00 | 29 | 1015.2 |
| 20260504004225 | 79 | 184 | 3.0 | 8.0 | 0.00 | 0.00 | 0.00 | 29 | 1015.3 |
| 20260504003725 | 79 | 126 | 2.0 | 7.0 | 0.00 | 0.00 | 0.00 | 29 | 1015.3 |
| 20260504003226 | 79 | 103 | 2.0 | 6.0 | 0.00 | 0.00 | 0.00 | 29 | 1015.4 |
| 20260504002725 | 79 | 169 | 3.0 | 6.0 | 0.00 | 0.00 | 0.00 | 30 | 1015.4 |
| 20260504002224 | 79 | 196 | 3.0 | 6.0 | 0.00 | 0.00 | 0.00 | 30 | 1015.3 |
| 20260504001719 | 79 | 150 | 3.0 | 8.0 | 0.00 | 0.00 | 0.00 | 30 | 1015.4 |
| 20260504001219 | 79 | 157 | 3.0 | 8.0 | 0.00 | 0.00 | 0.00 | 30 | 1015.6 |
| 20260504000719 | 78 | 140 | 2.0 | 7.0 | 0.00 | 0.00 | 0.00 | 30 | 1015.8 |
| 20260504000219 | 78 | 222 | 4.0 | 8.0 | 0.00 | 0.00 | 0.00 | 30 | 1015.6 |
| 20260503235716 | 78 | 230 | 4.0 | 8.0 | 0.00 | 0.00 | 0.00 | 30 | 1015.9 |
| 20260503235216 | 78 | 189 | 3.0 | 10.0 | 0.00 | 0.00 | 0.00 | 30 | 1015.9 |
| 20260503234717 | 78 | 180 | 3.0 | 10.0 | 0.00 | 0.00 | 0.00 | 30 | 1015.9 |
| 20260503234216 | 78 | 292 | 2.0 | 7.0 | 0.00 | 0.00 | 0.00 | 30 | 1016.0 |
| 20260503233716 | 79 | 185 | 2.0 | 7.0 | 0.00 | 0.00 | 0.00 | 29 | 1016.0 |
| 20260503233217 | 79 | 112 | 3.0 | 7.0 | 0.00 | 0.00 | 0.00 | 29 | 1016.0 |
| 20260503232717 | 79 | 100 | 2.0 | 6.0 | 0.00 | 0.00 | 0.00 | 29 | 1016.1 |
| 20260503232440 | 78 | 150 | 2.0 | 6.0 | 0.00 | 0.00 | 0.00 | 29 | 1016.1 |
| 20260503231713 | 78 | 233 | 4.0 | 8.0 | 0.00 | 0.00 | 0.00 | 30 | 1016.1 |
| 20260503231214 | 78 | 200 | 4.0 | 8.0 | 0.00 | 0.00 | 0.00 | 29 | 1016.2 |
| 20260503230713 | 79 | 181 | 5.0 | 11.0 | 0.00 | 0.00 | 0.00 | 29 | 1016.3 |
| 20260503230442 | 79 | 152 | 5.0 | 11.0 | 0.00 | 0.00 | 0.00 | 29 | 1016.4 |
| 20260503225712 | 79 | 202 | 3.0 | 6.0 | 0.00 | 0.00 | 0.00 | 29 | 1016.4 |
| 20260503225437 | 79 | 215 | 2.0 | 6.0 | 0.00 | 0.00 | 0.00 | 29 | 1016.3 |
| 20260503224712 | 79 | 169 | 3.0 | 7.0 | 0.00 | 0.00 | 0.00 | 29 | 1016.4 |
| 20260503224212 | 78 | 209 | 4.0 | 7.0 | 0.00 | 0.00 | 0.00 | 29 | 1016.4 |
| 20260503223709 | 78 | 242 | 4.0 | 9.0 | 0.00 | 0.00 | 0.00 | 29 | 1016.4 |
| 20260503223209 | 79 | 204 | 3.0 | 9.0 | 0.00 | 0.00 | 0.00 | 29 | 1016.5 |
| 20260503222709 | 79 | 232 | 2.0 | 7.0 | 0.00 | 0.00 | 0.00 | 29 | 1016.5 |
| 20260503222434 | 79 | 143 | 3.0 | 7.0 | 0.00 | 0.00 | 0.00 | 29 | 1016.7 |
| 20260503221710 | 79 | 213 | 4.0 | 10.0 | 0.00 | 0.00 | 0.00 | 28 | 1016.8 |
| 20260503221209 | 79 | 246 | 5.0 | 10.0 | 0.00 | 0.00 | 0.00 | 29 | 1016.9 |
| 20260503220709 | 79 | 244 | 3.0 | 10.0 | 0.00 | 0.00 | 0.00 | 29 | 1017.0 |
| 20260503220208 | 79 | 294 | 2.0 | 7.0 | 0.00 | 0.00 | 0.00 | 29 | 1017.0 |
| 20260503215709 | 79 | 355 | 3.0 | 11.0 | 0.00 | 0.00 | 0.00 | 29 | 1017.2 |
| 20260503215205 | 79 | 216 | 3.0 | 11.0 | 0.00 | 0.00 | 0.00 | 29 | 1017.2 |
| 20260503214705 | 78 | 91 | 4.0 | 10.0 | 0.00 | 0.00 | 0.00 | 30 | 1017.3 |
| 20260503214205 | 77 | 106 | 7.0 | 14.0 | 0.00 | 0.00 | 0.00 | 30 | 1017.6 |
| 20260503213924 | 77 | 190 | 5.0 | 14.0 | 0.00 | 0.00 | 0.00 | 30 | 1017.7 |
| 20260503213205 | 78 | 157 | 2.0 | 10.0 | 0.00 | 0.00 | 0.00 | 30 | 1017.8 |
| 20260503212704 | 77 | 301 | 3.0 | 11.0 | 0.00 | 0.00 | 0.00 | 30 | 1017.9 |
| 20260503212202 | 77 | 180 | 4.0 | 11.0 | 0.00 | 0.00 | 0.00 | 30 | 1018.0 |
| 20260503211702 | 76 | 223 | 5.0 | 9.0 | 0.00 | 0.00 | 0.00 | 31 | 1018.1 |
| 20260503211202 | 76 | 100 | 4.0 | 8.0 | 0.00 | 0.00 | 0.00 | 30 | 1018.2 |
| 20260503210935 | 76 | 166 | 3.0 | 8.0 | 0.00 | 0.00 | 0.00 | 31 | 1018.4 |
| 20260503210201 | 76 | 319 | 5.0 | 11.0 | 0.00 | 0.00 | 0.00 | 31 | 1018.4 |
| 20260503205702 | 76 | 173 | 5.0 | 11.0 | 0.00 | 0.00 | 0.00 | 31 | 1018.7 |
| 20260503205202 | 76 | 185 | 5.0 | 11.0 | 0.00 | 0.00 | 0.00 | 31 | 1018.9 |
| 20260503204703 | 76 | 150 | 5.0 | 9.0 | 0.00 | 0.00 | 0.00 | 30 | 1018.9 |
| 20260503204202 | 77 | 47 | 4.0 | 9.0 | 0.00 | 0.00 | 0.00 | 30 | 1019.0 |
| 20260503203658 | 77 | 149 | 3.0 | 9.0 | 0.00 | 0.00 | 0.00 | 30 | 1019.2 |
| 20260503203151 | 77 | 185 | 4.0 | 9.0 | 0.00 | 0.00 | 0.00 | 30 | 1019.2 |
| 20260503202646 | 77 | 219 | 3.0 | 7.0 | 0.00 | 0.00 | 0.00 | 30 | 1019.1 |
| 20260503202140 | 76 | 129 | 3.0 | 7.0 | 0.00 | 0.00 | 0.00 | 31 | 1019.2 |
| 20260503201634 | 76 | 45 | 2.0 | 5.0 | 0.00 | 0.00 | 0.00 | 31 | 1019.5 |
| 20260503201135 | 76 | 324 | 4.0 | 9.0 | 0.00 | 0.00 | 0.00 | 31 | 1019.6 |
| 20260503201124 | 76 | 171 | 5.0 | 9.0 | 0.00 | 0.00 | 0.00 | 31 | 1019.7 |
| 20260503200133 | 76 | 228 | 5.0 | 9.0 | 0.00 | 0.00 | 0.00 | 32 | 1019.5 |
| 20260503195632 | 76 | 219 | 4.0 | 9.0 | 0.00 | 0.00 | 0.00 | 31 | 1019.7 |
| 20260503195133 | 75 | 65 | 2.0 | 9.0 | 0.00 | 0.00 | 0.00 | 32 | 1019.9 |
| 20260503194632 | 75 | 94 | 3.0 | 8.0 | 0.00 | 0.00 | 0.00 | 32 | 1020.0 |
| 20260503194133 | 75 | 258 | 4.0 | 8.0 | 0.00 | 0.00 | 0.00 | 32 | 1020.2 |
| 20260503193630 | 74 | 211 | 2.0 | 6.0 | 0.00 | 0.00 | 0.00 | 34 | 1020.4 |
| 20260503193132 | 74 | 290 | 1.0 | 8.0 | 0.00 | 0.00 | 0.00 | 33 | 1020.4 |
| 20260503192630 | 74 | 181 | 3.0 | 8.0 | 0.00 | 0.00 | 0.00 | 33 | 1020.5 |
| 20260503192131 | 74 | 97 | 3.0 | 8.0 | 0.00 | 0.00 | 0.00 | 33 | 1020.5 |
| 20260503191631 | 74 | 239 | 2.0 | 6.0 | 0.00 | 0.00 | 0.00 | 33 | 1020.7 |
| 20260503191131 | 73 | 178 | 2.0 | 6.0 | 0.00 | 0.00 | 0.00 | 34 | 1020.7 |
| 20260503190630 | 73 | 162 | 3.0 | 10.0 | 0.00 | 0.00 | 0.00 | 34 | 1020.7 |
| 20260503190130 | 72 | 196 | 4.0 | 10.0 | 0.00 | 0.00 | 0.00 | 35 | 1020.9 |
| 20260503185629 | 72 | 91 | 3.0 | 7.0 | 0.00 | 0.00 | 0.00 | 36 | 1020.9 |
| 20260503185128 | 71 | 0 | 3.0 | 7.0 | 0.00 | 0.00 | 0.00 | 36 | 1020.7 |
| 20260503184625 | 71 | 109 | 2.0 | 6.0 | 0.00 | 0.00 | 0.00 | 36 | 1020.9 |
| 20260503184120 | 71 | 238 | 2.0 | 6.0 | 0.00 | 0.00 | 0.00 | 37 | 1020.9 |
| 20260503183614 | 71 | 109 | 3.0 | 7.0 | 0.00 | 0.00 | 0.00 | 37 | 1021.3 |
| 20260503183108 | 71 | 107 | 3.0 | 7.0 | 0.00 | 0.00 | 0.00 | 37 | 1021.5 |
| 20260503182601 | 71 | 115 | 4.0 | 7.0 | 0.00 | 0.00 | 0.00 | 37 | 1021.5 |
| 20260503182102 | 71 | 117 | 4.0 | 8.0 | 0.00 | 0.00 | 0.00 | 37 | 1021.6 |
| 20260503181602 | 71 | 107 | 3.0 | 8.0 | 0.00 | 0.00 | 0.00 | 38 | 1021.6 |
| 20260503181330 | 70 | 36 | 3.0 | 8.0 | 0.00 | 0.00 | 0.00 | 38 | 1021.6 |
| 20260503180602 | 70 | 171 | 2.0 | 7.0 | 0.00 | 0.00 | 0.00 | 39 | 1021.6 |
| 20260503175602 | 69 | 26 | 3.0 | 10.0 | 0.00 | 0.00 | 0.00 | 41 | 1021.7 |
| 20260503175102 | 68 | 11 | 3.0 | 10.0 | 0.00 | 0.00 | 0.00 | 41 | 1021.9 |
| 20260503174602 | 68 | 153 | 2.0 | 6.0 | 0.00 | 0.00 | 0.00 | 42 | 1022.2 |
| 20260503174101 | 68 | 23 | 2.0 | 7.0 | 0.00 | 0.00 | 0.00 | 41 | 1022.2 |
| 20260503173603 | 68 | 114 | 2.0 | 7.0 | 0.00 | 0.00 | 0.00 | 41 | 1022.2 |
| 20260503173102 | 67 | 75 | 2.0 | 7.0 | 0.00 | 0.00 | 0.00 | 42 | 1022.3 |
| 20260503172601 | 67 | 350 | 2.0 | 6.0 | 0.00 | 0.00 | 0.00 | 42 | 1022.2 |
| 20260503172554 | 67 | 209 | 3.0 | 6.0 | 0.00 | 0.00 | 0.00 | 42 | 1022.2 |
| 20260503171602 | 68 | 75 | 2.0 | 6.0 | 0.00 | 0.00 | 0.00 | 42 | 1022.2 |
| 20260503171102 | 67 | 167 | 2.0 | 7.0 | 0.00 | 0.00 | 0.00 | 42 | 1022.3 |
| 20260503170602 | 67 | 229 | 3.0 | 10.0 | 0.00 | 0.00 | 0.00 | 43 | 1022.4 |
| 20260503150300 | 62 | 113 | 1.0 | 4.0 | 0.00 | 0.00 | 0.00 | 48 | 1022.9 |
| 20260503131254 | 53 | 329 | 0.0 | 0.0 | 0.00 | 0.01 | 0.00 | 69 | 1022.5 |
| 20260503130536 | 53 | 329 | 0.0 | 0.0 | 0.00 | 0.01 | 0.00 | 70 | 1022.3 |
| 20260503110729 | 53 | 24 | 0.0 | 0.0 | 0.00 | 0.01 | 0.00 | 68 | 1022.2 |